Year;Month;Day;Time;MJD;Mass_X;Mass_Y;Mass_Z;Motion_X;Motion_Y;Motion_Z
2007;01;01;00:00:00;54101.0;1.182919115128641e-08;6.318467867636486e-08;1.122278794973548e-10;-8.396000691712920e-08;-1.310129939026263e-07;-1.391524951650192e-10
2007;01;01;03:00:00;54101.125;1.259205853231961e-08;4.355301091243420e-08;9.152404740721980e-11;-9.031542027404151e-08;-7.879417053948511e-08;-5.500045899746402e-11
2007;01;01;06:00:00;54101.250;9.179926053811932e-09;3.145924292310183e-08;6.132203280570033e-11;-9.002090992566312e-08;-1.632759384680386e-08;3.513548655491591e-11
2007;01;01;09:00:00;54101.375;1.746782428860850e-09;3.616601789654312e-08;8.027576391534348e-11;-7.875474528252360e-08;-6.085389247360196e-09;-3.487629557392968e-12
2007;01;01;12:00:00;54101.500;-1.290147583464524e-08;4.430425770398479e-08;9.580626517185734e-11;-5.534905124876916e-08;2.249421017687597e-08;-1.054565203648309e-10
2007;01;01;15:00:00;54101.625;-3.761551117094285e-08;4.502183496334625e-08;6.640270407813307e-11;-2.372865103959460e-08;7.088272494382177e-08;-1.884493570857510e-10
2007;01;01;18:00:00;54101.750;-5.028858295950026e-08;4.817180064651936e-08;4.501887364614437e-11;-1.829008286737038e-08;8.032097577786797e-08;-1.925962957611030e-10
2007;01;01;21:00:00;54101.875;-3.545928181890957e-08;5.931683512222368e-08;4.718523465456778e-11;-3.790244031535442e-08;2.144826603713367e-08;-2.233572091691348e-10
2007;01;02;00:00:00;54102.0;1.509124956485885e-09;5.986167562261057e-08;2.027555238755961e-11;-7.150132462654620e-08;-1.687172802162091e-08;-2.948065599497671e-10
2007;01;02;03:00:00;54102.125;4.539545643016219e-08;3.401754886085242e-08;-5.401133085208316e-11;-7.750037631241509e-08;-4.558462811813577e-08;-2.740591297909010e-10
2007;01;02;06:00:00;54102.250;7.527005863960974e-08;-3.547086493846265e-10;-5.735649623854480e-11;-6.595814364256049e-08;-1.366304018469970e-08;-2.237241252602850e-10
2007;01;02;09:00:00;54102.375;9.036277463095557e-08;-2.052466096174562e-08;-1.243491658931779e-11;-2.458095786336896e-08;-3.390481119976162e-08;-2.129706862215820e-10
2007;01;02;12:00:00;54102.500;9.720691242890424e-08;-3.932520018220032e-08;-1.298314528514585e-12;1.475023748035154e-08;-7.248975400929575e-08;-2.032933264452171e-10
2007;01;02;15:00:00;54102.625;8.417537934800946e-08;-5.224688623178799e-08;-2.979694505074152e-11;6.104001560436677e-08;-3.460190738540224e-08;-1.727041867327800e-10
2007;01;02;18:00:00;54102.750;5.701565386609607e-08;-5.327975695974333e-08;-6.605647577203026e-12;7.952348903525156e-08;1.503702175264240e-08;-1.354871304472369e-10
2007;01;02;21:00:00;54102.875;4.505431060908261e-08;-4.160852106593233e-08;4.537482479225932e-12;5.395012356753430e-08;1.385340062367353e-08;-1.847332880285279e-10
2007;01;03;00:00:00;54103.0;5.887776437846313e-08;-2.746493766268200e-08;-7.326778790481095e-11;5.842515189588677e-09;-1.514934518851513e-08;-3.034826626742291e-10
2007;01;03;03:00:00;54103.125;7.198996024443351e-08;-1.857182890172493e-08;-1.851084094716283e-10;7.599613916120827e-09;-6.500553863004014e-08;-3.642168587171449e-10
2007;01;03;06:00:00;54103.250;6.121291230702031e-08;-2.329821416230917e-08;-2.167985861900939e-10;5.139570588083882e-08;-3.732865082432079e-08;-4.067859008960739e-10
2007;01;03;09:00:00;54103.375;4.713938460295377e-08;-3.413963385558617e-08;-1.887646199102656e-10;7.272427469510245e-08;-3.179950032137831e-08;-4.814230230043692e-10
2007;01;03;12:00:00;54103.500;5.413388038692852e-08;-5.728375045834285e-08;-1.945144277353843e-10;7.266378447288246e-08;-2.933872347503325e-08;-5.220661027451718e-10
2007;01;03;15:00:00;54103.625;4.998373657259102e-08;-8.585892082865963e-08;-2.365668141507098e-10;6.821873043018351e-08;5.034857757869338e-09;-5.562875166781449e-10
2007;01;03;18:00:00;54103.750;3.155758223476460e-08;-9.789514530562329e-08;-2.359588822624040e-10;6.349978142853518e-08;4.429177477955587e-08;-5.798074706851698e-10
2007;01;03;21:00:00;54103.875;2.320804949404222e-08;-8.886628614912080e-08;-2.183744710742483e-10;8.316843508804556e-08;7.898876033414596e-08;-6.251970950378409e-10
2007;01;04;00:00:00;54104.0;2.990169142702304e-08;-7.443972268678098e-08;-2.334496335410344e-10;1.235247649114765e-07;6.584024794595816e-08;-6.289080030953039e-10
2007;01;04;03:00:00;54104.125;2.989750966869160e-08;-6.568457947971564e-08;-2.615535860829968e-10;1.707667482908881e-07;-3.772377755043073e-08;-5.471996987538030e-10
2007;01;04;06:00:00;54104.250;1.256146445654234e-08;-5.384140443749425e-08;-2.199965497858326e-10;1.796541702136667e-07;-8.148169464119206e-08;-4.604681323604830e-10
2007;01;04;09:00:00;54104.375;-4.176378318727283e-09;-4.016992612614218e-08;-1.596850009654171e-10;1.397744394384613e-07;-1.080493402067858e-07;-4.173811492685949e-10
2007;01;04;12:00:00;54104.500;-2.768725077310818e-09;-4.038735170545662e-08;-1.340379030203530e-10;7.700796017367080e-08;-1.325854256950420e-07;-4.307130123103821e-10
2007;01;04;15:00:00;54104.625;3.311038247005526e-09;-5.094036387912519e-08;-1.355070902995755e-10;2.489782865632283e-08;-1.582958811634743e-07;-4.743021394123398e-10
2007;01;04;18:00:00;54104.750;2.284968755957061e-08;-5.607754220927349e-08;-1.429882705225998e-10;-5.824246771253871e-09;-1.802397870544165e-07;-4.078129118429749e-10
2007;01;04;21:00:00;54104.875;5.664903272360356e-08;-4.933408582446894e-08;-1.608788070530761e-10;-2.725758416610870e-08;-1.258360358158248e-07;-3.234480726361039e-10
2007;01;05;00:00:00;54105.0;8.712033545284847e-08;-4.687451697283615e-08;-1.819608722727314e-10;-3.559639033425796e-08;-3.601318342761677e-08;-2.895709427139791e-10
2007;01;05;03:00:00;54105.125;8.942502805523977e-08;-5.669823050592850e-08;-2.006593043498080e-10;-2.665345004541170e-08;-3.929369364881938e-08;-2.523878402199449e-10
2007;01;05;06:00:00;54105.250;6.895982931848625e-08;-6.474657480064347e-08;-1.956224733428074e-10;-1.090150822569318e-08;-4.783021621386578e-08;-1.734376249167561e-10
2007;01;05;09:00:00;54105.375;4.511635954221608e-08;-5.202419259144938e-08;-1.740533405791189e-10;1.650288484664272e-08;-2.923059366344925e-08;-1.311686049910230e-10
2007;01;05;12:00:00;54105.500;2.770588910310016e-08;-2.690816811949777e-08;-1.704773800708335e-10;1.497667334500799e-08;-3.856496532661936e-08;-1.530908769730150e-10
2007;01;05;15:00:00;54105.625;8.809474534640180e-09;-5.791069112322962e-09;-2.011910475775471e-10;-1.521064907270786e-08;-7.113975029227344e-08;-1.946191169003232e-10
2007;01;05;18:00:00;54105.750;-7.150839617915657e-10;1.497336756484901e-08;-2.372162623663639e-10;-5.357760140065780e-08;-7.478139105537792e-08;-1.834716875762871e-10
2007;01;05;21:00:00;54105.875;7.501526288207665e-09;4.032980585239779e-08;-2.735953046527193e-10;-7.189709620187731e-08;-3.920267074788306e-08;-1.818243557855128e-10
2007;01;06;00:00:00;54106.0;2.325631222706178e-08;5.133530821374640e-08;-3.077722168999056e-10;-9.584984473519571e-08;1.763404694002985e-08;-2.359311354510300e-10
2007;01;06;03:00:00;54106.125;2.864906523245254e-08;3.198480810120630e-08;-3.356555672938154e-10;-1.032912743940136e-07;-8.433154443610566e-09;-2.688772901314189e-10
2007;01;06;06:00:00;54106.250;7.437583281986365e-09;3.518315592536564e-09;-3.372463382283646e-10;-5.694702876776313e-08;7.806709124748301e-09;-2.186252146925928e-10
2007;01;06;09:00:00;54106.375;-6.327404180342620e-09;-5.214071883790666e-09;-3.142739841058331e-10;2.150353003204298e-08;-9.420508057649331e-09;-1.530324996626760e-10
2007;01;06;12:00:00;54106.500;-6.868105549103014e-09;4.154072026098839e-09;-2.870130825450449e-10;6.408702030218454e-08;2.503814425403017e-08;-1.392567795666822e-10
2007;01;06;15:00:00;54106.625;-3.329472139995889e-08;2.397476943297360e-08;-2.727368703640508e-10;7.650390532042381e-08;2.860832817679696e-08;-1.942367499753969e-10
2007;01;06;18:00:00;54106.750;-6.106522256688429e-08;4.592151382389277e-08;-2.952470817213149e-10;7.533826629604979e-08;-1.848033258036120e-08;-2.021543670234629e-10
2007;01;06;21:00:00;54106.875;-5.162947749001433e-08;6.830621717140549e-08;-3.496137268316642e-10;6.927066830327522e-08;-3.440556385027947e-08;-2.111140226860319e-10
2007;01;07;00:00:00;54107.0;-1.714265573417603e-08;7.495332043036381e-08;-4.088446447378387e-10;4.379959685021203e-08;-2.912726236842573e-08;-2.818833918749160e-10
2007;01;07;03:00:00;54107.125;8.583411243405812e-09;5.284914754080548e-08;-4.496058258350283e-10;1.558087080619565e-08;-5.298293436958126e-08;-3.841522189746299e-10
2007;01;07;06:00:00;54107.250;1.848655883487242e-08;1.238851609299743e-08;-4.766106804404152e-10;4.290918054386721e-08;-7.982944620615785e-08;-4.248266468266959e-10
2007;01;07;09:00:00;54107.375;4.262102384900725e-08;-3.063758215980225e-08;-5.083381110545645e-10;7.166324428282765e-08;-1.081532440114093e-07;-4.155904770138030e-10
2007;01;07;12:00:00;54107.500;7.210931287622481e-08;-6.776738518164723e-08;-5.003536216929752e-10;1.169915609590169e-07;-5.823636029714504e-08;-4.274890444335181e-10
2007;01;07;15:00:00;54107.625;6.668139703919400e-08;-7.912589084490426e-08;-4.597238509513234e-10;1.918807873694204e-07;-1.034251712015482e-08;-4.819004489385741e-10
2007;01;07;18:00:00;54107.750;3.424278460629771e-08;-6.159468942363448e-08;-4.522944867740838e-10;2.216880965798641e-07;-3.528521678224570e-08;-4.489284435971389e-10
2007;01;07;21:00:00;54107.875;1.099526386400041e-08;-2.692131842000328e-08;-4.712961105937979e-10;1.938606457113588e-07;-8.207270905755393e-08;-3.890995382697489e-10
2007;01;08;00:00:00;54108.0;3.978582053679608e-09;2.722684539780664e-10;-4.763916257039384e-10;1.599719951163212e-07;-8.861018320178577e-08;-3.842323809366529e-10
2007;01;08;03:00:00;54108.125;2.463851876001227e-09;1.753324434900877e-08;-4.783560742483734e-10;8.481927015602237e-08;-1.421897045349729e-07;-4.274069368887172e-10
2007;01;08;06:00:00;54108.250;-6.631453829726884e-09;2.365735106317384e-08;-4.650382118680731e-10;5.832839013533848e-09;-1.872394448984864e-07;-3.864318647955108e-10
2007;01;08;09:00:00;54108.375;-7.873835773442932e-09;1.920505526025270e-08;-4.516973587053631e-10;-6.512460418474155e-08;-2.776216215813695e-07;-2.419712716695650e-10
2007;01;08;12:00:00;54108.500;5.758493523071273e-09;1.030832343092982e-09;-4.200078678359905e-10;-1.336351204581453e-07;-3.063327572853696e-07;-1.237869638142970e-10
2007;01;08;15:00:00;54108.625;2.165788946410526e-08;-1.251903776169973e-08;-3.733966761689059e-10;-1.568283042860868e-07;-2.302141933709911e-07;-1.302811894791978e-10
2007;01;08;18:00:00;54108.750;2.628535628785207e-08;-2.224157089273154e-08;-3.569646747988404e-10;-1.504773906290931e-07;-1.249428743087177e-07;-1.578354053078920e-10
2007;01;08;21:00:00;54108.875;3.532053200444849e-08;-2.939858048781635e-08;-3.577782494594554e-10;-1.043255251694298e-07;-2.859912265055081e-08;-2.304789482041618e-10
2007;01;09;00:00:00;54109.0;5.739835872039697e-08;-3.512835540128269e-08;-3.756848484735068e-10;-2.821597471028139e-08;7.544318531846707e-08;-3.161529104464198e-10
2007;01;09;03:00:00;54109.125;7.096030287551305e-08;-3.243106457866166e-08;-4.329820588620573e-10;3.306212086745230e-08;1.045470771622731e-07;-3.589187769359478e-10
2007;01;09;06:00:00;54109.250;6.335597498239231e-08;-2.219015322163482e-08;-4.737867167150992e-10;5.179054917944178e-08;1.063330479734015e-07;-3.489756850095129e-10
2007;01;09;09:00:00;54109.375;4.608474873595565e-08;-1.251964600917860e-08;-4.483228343908793e-10;5.591162906868988e-08;4.988538995260046e-08;-2.824834488445940e-10
2007;01;09;12:00:00;54109.500;3.711700982419082e-08;-1.875933335532090e-08;-4.073628772390664e-10;7.453357279513315e-08;-3.339915979636499e-08;-1.895604252412398e-10
2007;01;09;15:00:00;54109.625;4.272509546570545e-08;-2.037589443348031e-08;-3.846725818516034e-10;4.474713929722506e-08;-1.115158930100298e-07;-1.855679285447919e-10
2007;01;09;18:00:00;54109.750;5.606629839233520e-08;-9.454331899898581e-09;-3.489621446544784e-10;-2.052006743215586e-08;-1.635971456997851e-07;-1.807350244519300e-10
2007;01;09;21:00:00;54109.875;8.082509970805268e-08;7.640377008199665e-09;-3.404776113620821e-10;-7.609481359971370e-08;-1.877663351954526e-07;-1.471455200245571e-10
2007;01;10;00:00:00;54110.0;1.050890115996245e-07;9.680998815584354e-09;-3.737051149708224e-10;-1.214757003421209e-07;-1.506656338308298e-07;-8.469102096931510e-11
2007;01;10;03:00:00;54110.125;1.106870808004166e-07;-8.247325737906798e-09;-4.460143659847676e-10;-1.643073901835780e-07;-1.178096280845726e-07;-2.309913577193118e-11
2007;01;10;06:00:00;54110.250;9.506228184787019e-08;-4.034732383082617e-08;-4.942687446044825e-10;-1.306465938758202e-07;-1.799219899071948e-08;-4.852323752382999e-11
2007;01;10;09:00:00;54110.375;6.290578036095664e-08;-6.618346273576482e-08;-4.954661795177922e-10;-9.333590982533831e-08;5.358200815303066e-08;-1.276604969059881e-10
2007;01;10;12:00:00;54110.500;2.671189466342826e-08;-8.188274782778925e-08;-4.999696460345084e-10;-6.699954285523594e-08;7.550360402303757e-08;-1.135631150359258e-10
2007;01;10;15:00:00;54110.625;5.693970055380385e-09;-8.353890832764135e-08;-4.980579376707716e-10;-2.400406637708937e-08;7.875398620364798e-08;-8.593066853679217e-11
2007;01;10;18:00:00;54110.750;-1.498589825918191e-09;-6.547881284913632e-08;-4.948152200780455e-10;4.696472954740004e-08;1.048792494331215e-07;-4.320696522383582e-11
2007;01;10;21:00:00;54110.875;8.631042971377384e-09;-2.742298830995071e-08;-4.977023508247007e-10;1.031272009271195e-07;7.500756611997666e-08;1.302850423712416e-11
2007;01;11;00:00:00;54111.0;2.238354950494064e-08;6.937353720905818e-09;-4.976510474525378e-10;9.244348476580928e-08;-1.637671600612512e-08;5.908253496499991e-11
2007;01;11;03:00:00;54111.125;2.084156734749022e-08;8.406315589453095e-09;-4.975375236892682e-10;6.699941892525701e-08;-4.124523571501816e-08;7.107602719275582e-11
2007;01;11;06:00:00;54111.250;3.753673767617023e-09;-1.503531613804618e-08;-4.855347862721874e-10;8.015997947323515e-08;-1.437136824355596e-08;5.272435836031811e-11
2007;01;11;09:00:00;54111.375;-1.292431484219444e-08;-3.388354239388016e-08;-4.748730527602955e-10;1.095002191537393e-07;-2.858671006332531e-08;7.562981264919797e-11
2007;01;11;12:00:00;54111.500;-2.325243832407975e-08;-3.763453458164306e-08;-4.793847804126827e-10;1.172885109839811e-07;-2.147746346918238e-08;1.426571609046090e-10
2007;01;11;15:00:00;54111.625;-3.588523350964370e-08;-2.660084546056421e-08;-4.749920170582415e-10;1.134819655200860e-07;5.514726578651053e-09;1.722451449859370e-10
2007;01;11;18:00:00;54111.750;-5.371227760989850e-08;-7.832976780545101e-09;-4.295353018723315e-10;1.475482285618198e-07;1.045049563556316e-07;2.031756660273779e-10
2007;01;11;21:00:00;54111.875;-5.604384906085151e-08;2.660214270939267e-08;-4.174103986802569e-10;1.816900287639453e-07;1.243483062873791e-07;1.910092280857339e-10
2007;01;12;00:00:00;54112.0;-4.314042670284319e-08;5.317173039920350e-08;-4.472638520365018e-10;1.995400017481235e-07;1.206425950948994e-07;1.666344236466242e-10
2007;01;12;03:00:00;54112.125;-3.161042787096582e-08;6.049773218142461e-08;-4.680138818321995e-10;1.889813594513160e-07;1.394151060487245e-07;1.354091538029759e-10
2007;01;12;06:00:00;54112.250;-2.573318793288087e-08;5.663510115049664e-08;-4.443108483848186e-10;1.472765670724283e-07;1.381082729266362e-07;1.140265459842089e-10
2007;01;12;09:00:00;54112.375;-2.232407131423127e-08;4.474737795895761e-08;-4.287791546200035e-10;1.185291761670273e-07;1.085848664799991e-07;1.429068444026248e-10
2007;01;12;12:00:00;54112.500;-1.749326081239745e-08;3.216208109340191e-08;-4.080782358109123e-10;7.484507095043634e-08;9.340375801217987e-08;1.994557020724848e-10
2007;01;12;15:00:00;54112.625;-9.739760707692071e-09;2.672052447864180e-08;-3.478835628876331e-10;4.327871054237616e-08;1.130860123277194e-07;1.840310027091320e-10
2007;01;12;18:00:00;54112.750;-1.252130082428506e-08;1.367339212890191e-08;-2.586167982029230e-10;3.348337645537295e-08;1.396337894514814e-07;1.547555858259221e-10
2007;01;12;21:00:00;54112.875;-1.332480260532549e-08;7.290327223990258e-09;-2.093046833933252e-10;7.296550270789427e-09;1.398588691069827e-07;1.848658202642801e-10
2007;01;13;00:00:00;54113.0;2.172948826956823e-09;9.667666208924108e-09;-2.374632342615038e-10;1.905533833520543e-08;1.411969999796971e-07;2.514207209433439e-10
2007;01;13;03:00:00;54113.125;9.712480465253291e-09;2.890135388919914e-09;-2.503399993074632e-10;2.796325058845306e-08;1.573488119319673e-07;2.477799536176142e-10
2007;01;13;06:00:00;54113.250;-3.170854663796391e-09;-1.488372249773350e-08;-1.992909686596348e-10;1.201094669807822e-08;1.604859983343646e-07;1.669114543201661e-10
2007;01;13;09:00:00;54113.375;-2.429620529072337e-08;-3.095220359009810e-08;-2.064673521553827e-10;1.515930609037401e-08;1.271772374074131e-07;1.252344901889780e-10
2007;01;13;12:00:00;54113.500;-3.559413804355331e-08;-4.432016185029359e-08;-2.634060475000139e-10;3.328710889972965e-08;8.774410533582187e-08;1.277270409667901e-10
2007;01;13;15:00:00;54113.625;-3.217808511705438e-08;-5.200608009469901e-08;-2.460886630292687e-10;2.979501769402177e-08;5.842172739562598e-08;4.471845925156904e-11
2007;01;13;18:00:00;54113.750;-2.146819966100198e-08;-4.848317036706498e-08;-1.570629137453778e-10;4.081381330575966e-08;7.510922434580786e-08;-3.774330362309299e-11
2007;01;13;21:00:00;54113.875;-1.253660192894472e-08;-3.274874136929897e-08;-1.499666945187106e-10;4.419680390637802e-08;6.773113469529817e-08;-5.620685214321089e-11
2007;01;14;00:00:00;54114.0;-3.994927465237555e-10;-2.466332032086179e-08;-2.039309920763489e-10;4.653230048645571e-08;3.588619665440057e-08;-8.238036194684963e-12
2007;01;14;03:00:00;54114.125;1.092814978033508e-08;-2.050606399813106e-08;-1.991511499524903e-10;4.340234663247825e-08;5.797403166026811e-09;4.900938164116702e-11
2007;01;14;06:00:00;54114.250;7.586092958031819e-09;-2.329346116517034e-08;-1.449763701022964e-10;6.620394412592766e-08;-4.196982470748323e-09;6.953070983477887e-11
2007;01;14;09:00:00;54114.375;-1.795622723312689e-09;-2.598735893898556e-08;-1.476337324114805e-10;9.005319223691704e-08;-2.812507512831213e-08;6.842308658127904e-11
2007;01;14;12:00:00;54114.500;-4.858926225618777e-09;-2.723342345607340e-08;-1.769692502088277e-10;8.854615506351197e-08;-2.243146371144538e-08;9.040708630999895e-11
2007;01;14;15:00:00;54114.625;-3.391501349890838e-09;-2.708517476567717e-08;-1.746762069616857e-10;8.331365411802932e-08;5.473082519759287e-09;9.596683103523491e-11
2007;01;14;18:00:00;54114.750;-7.331606434962566e-09;-2.187462482292827e-08;-1.345319079385455e-10;1.002425173122190e-07;9.130297808618436e-09;1.065297987210840e-10
2007;01;14;21:00:00;54114.875;-4.083193942015340e-09;-6.072666515775741e-09;-1.560180774486118e-10;9.594207975024392e-08;3.280517982055316e-09;1.135686809568842e-10
2007;01;15;00:00:00;54115.0;4.722681745989650e-09;6.257764282481207e-09;-1.955021171401211e-10;8.451483478867802e-08;-2.713598594260473e-08;1.123530270254420e-10
2007;01;15;03:00:00;54115.125;1.030919733175750e-08;1.104180554411145e-08;-1.515969846587108e-10;1.106715574071708e-07;-8.567103604587963e-08;1.080358813344560e-10
2007;01;15;06:00:00;54115.250;1.871107907778758e-08;1.106560907521427e-08;-8.507924247892857e-11;1.106168469242797e-07;-1.315387981521500e-07;1.044506852681509e-10
2007;01;15;09:00:00;54115.375;2.947334784676354e-08;1.173439614583750e-08;-9.302262263637113e-11;7.530755427207370e-08;-2.082199585437583e-07;1.069168544116289e-10
2007;01;15;12:00:00;54115.500;4.096675718374209e-08;1.357919187611897e-08;-1.201280126543010e-10;3.468673668818972e-08;-2.146269343924493e-07;1.148635468234342e-10
2007;01;15;15:00:00;54115.625;4.974761616824493e-08;1.640358628981102e-08;-9.604249380178009e-11;1.457327373948128e-08;-1.828591634658536e-07;7.347810064914390e-11
2007;01;15;18:00:00;54115.750;5.110815916162138e-08;2.000727989481163e-08;-6.709486455594013e-11;-9.115974723695539e-09;-1.886430523255270e-07;4.121505170842292e-11
2007;01;15;21:00:00;54115.875;5.649498713749767e-08;3.465274450029925e-08;-9.027897332464791e-11;-7.151405905031150e-08;-1.961546430162045e-07;4.154453408428488e-11
2007;01;16;00:00:00;54116.0;6.266419630638244e-08;4.308505495254142e-08;-1.288254079185862e-10;-1.080348876282424e-07;-2.110927752438922e-07;6.201051238216299e-11
2007;01;16;03:00:00;54116.125;5.754968910708318e-08;3.582771282936229e-08;-1.266328603682584e-10;-1.147442962829383e-07;-2.404690557233063e-07;1.070385452405852e-10
2007;01;16;06:00:00;54116.250;4.757992546018171e-08;2.309890547140225e-08;-7.784734407223552e-11;-1.074686781555400e-07;-2.059403694102518e-07;1.353538800771680e-10
2007;01;16;09:00:00;54116.375;4.632518003122659e-08;1.227026092834049e-08;-7.153369386658979e-11;-1.146260059035352e-07;-1.973587126509097e-07;1.360347793348481e-10
2007;01;16;12:00:00;54116.500;4.995996256640824e-08;-7.039300734149179e-10;-1.019671209217012e-10;-1.137340150418550e-07;-1.917006021910679e-07;1.362901892085362e-10
2007;01;16;15:00:00;54116.625;5.664055409390581e-08;-8.260006108923624e-09;-1.153768813063822e-10;-8.288866392310150e-08;-1.060895546476977e-07;8.532593311761397e-11
2007;01;16;18:00:00;54116.750;6.767273240512136e-08;-1.693297222651206e-08;-1.228604560296342e-10;-4.247763560436456e-08;-3.537490202216160e-08;-2.963506448272855e-12
2007;01;16;21:00:00;54116.875;8.598767698630155e-08;-1.755022174824527e-08;-2.061537017838707e-10;-1.923341292245745e-08;-1.723750601516020e-08;-8.598101267528604e-11
2007;01;17;00:00:00;54117.0;1.021204015828741e-07;-2.019955922018552e-08;-2.876875754400336e-10;1.405655506626333e-08;-2.103691294236423e-08;-1.216647515618581e-10
2007;01;17;03:00:00;54117.125;1.026838798771978e-07;-2.899451730645856e-08;-2.864791637813471e-10;5.287852624746704e-08;-1.499147642620176e-08;-1.173883593311280e-10
2007;01;17;06:00:00;54117.250;8.932708962791783e-08;-4.232043230538744e-08;-2.109801903533353e-10;7.190513426519648e-08;2.609975244854206e-08;-1.299219601315250e-10
2007;01;17;09:00:00;54117.375;7.216070321797804e-08;-5.038892756941418e-08;-1.619239622600303e-10;6.868540188383544e-08;-4.325634463145986e-09;-1.483727472713570e-10
2007;01;17;12:00:00;54117.500;5.849535868208843e-08;-4.775387043677053e-08;-1.544393606419154e-10;4.825690966219781e-08;-6.073982194421065e-08;-1.070050059187648e-10
2007;01;17;15:00:00;54117.625;5.187839003856666e-08;-3.311938235973482e-08;-1.463353493183889e-10;4.858163739339271e-08;-5.856078926720173e-08;-7.969482068524110e-11
2007;01;17;18:00:00;54117.750;5.417502979641407e-08;-1.166817259674833e-08;-1.040198871829414e-10;6.839599357555886e-08;-2.449774303105691e-08;-1.015246747208081e-10
2007;01;17;21:00:00;54117.875;6.829139448760320e-08;8.712604389926076e-09;-9.668055710884534e-11;5.264761812617311e-08;1.369847220316685e-08;-1.532455987211890e-10
2007;01;18;00:00:00;54118.0;7.430345693107319e-08;1.222277881056305e-08;-1.284108363119190e-10;3.960935812945538e-08;2.758342463421817e-08;-1.985587296409930e-10
2007;01;18;03:00:00;54118.125;6.334311050336517e-08;-9.235098959690282e-09;-1.578086410409715e-10;5.805339487428596e-08;3.256038026831286e-08;-2.253509885291210e-10
2007;01;18;06:00:00;54118.250;4.952157414115634e-08;-3.830101333244083e-08;-1.581259368174073e-10;7.656726389877864e-08;8.146854600570837e-08;-2.335264447796320e-10
2007;01;18;09:00:00;54118.375;3.063661641414899e-08;-6.035831760616661e-08;-1.753826018130688e-10;1.153642767771000e-07;6.460946430424166e-08;-2.586467521509561e-10
2007;01;18;12:00:00;54118.500;1.891991059132359e-08;-6.357124033688372e-08;-1.955881226468834e-10;1.438880130576962e-07;5.780663618786108e-08;-2.940127253667751e-10
2007;01;18;15:00:00;54118.625;1.718238978138299e-08;-5.035045499048459e-08;-1.807472143546467e-10;1.541581216870905e-07;8.066278473245997e-08;-3.393232186882941e-10
2007;01;18;18:00:00;54118.750;1.833529872184077e-08;-3.107165314461654e-08;-1.604006274489514e-10;1.543160921307725e-07;7.726539316154317e-08;-3.601681265919399e-10
2007;01;18;21:00:00;54118.875;3.731186412274253e-08;-1.563573736419779e-08;-1.972161364625668e-10;1.504923115875785e-07;2.891376067072147e-08;-3.933931448117149e-10